Time,TemperatureF,DewpointF,PressureIn,WindDirection,WindDirectionDegrees,WindSpeedMPH,WindSpeedGustMPH,Humidity,HourlyPrecipIn,Conditions,Clouds,dailyrainin,SoftwareType,DateUTC
2013-09-23 00:01:00,48.0,43.1,30.07,NE,45,1.0,2.0,83,0.00,,---,0.00,VWS V14.01,2013-09-23 04:01:00,
2013-09-23 00:02:00,48.0,43.1,30.07,ENE,68,1.0,2.0,83,0.00,,---,0.00,VWS V14.01,2013-09-23 04:02:00,
2013-09-23 00:07:00,48.0,43.1,30.07,SE,135,0.0,3.0,83,0.00,,---,0.00,VWS V14.01,2013-09-23 04:07:00,
2013-09-23 00:12:00,48.0,43.1,30.06,East,90,4.0,5.0,83,0.00,,---,0.00,VWS V14.01,2013-09-23 04:12:00,
2013-09-23 00:17:00,48.0,43.4,30.07,East,90,1.0,7.0,84,0.00,,---,0.00,VWS V14.01,2013-09-23 04:17:00,
2013-09-23 00:22:00,48.0,43.4,30.06,NE,45,5.0,9.0,84,0.00,,---,0.00,VWS V14.01,2013-09-23 04:22:00,
2013-09-23 00:28:00,48.0,43.1,30.06,NE,45,1.0,9.0,83,0.00,,---,0.00,VWS V14.01,2013-09-23 04:28:00,
2013-09-23 00:33:00,48.0,43.1,30.06,East,90,6.0,10.0,83,0.00,,---,0.00,VWS V14.01,2013-09-23 04:33:00,
2013-09-23 00:38:00,47.0,41.8,30.06,NNE,22,2.0,10.0,82,0.00,,---,0.00,VWS V14.01,2013-09-23 04:38:00,
2013-09-23 00:43:00,47.0,41.5,30.06,NE,45,2.0,5.0,81,0.00,,---,0.00,VWS V14.01,2013-09-23 04:43:00,
2013-09-23 00:48:00,48.0,42.5,30.06,NE,45,1.0,5.0,81,0.00,,---,0.00,VWS V14.01,2013-09-23 04:48:00,
2013-09-23 00:53:00,47.0,41.2,30.07,NE,45,4.0,6.0,80,0.00,,---,0.00,VWS V14.01,2013-09-23 04:53:00,
2013-09-23 00:58:00,47.0,41.2,30.07,East,90,1.0,6.0,80,0.00,,---,0.00,VWS V14.01,2013-09-23 04:58:00,
2013-09-23 01:04:00,47.0,41.2,30.07,NE,45,2.0,5.0,80,0.00,,---,0.00,VWS V14.01,2013-09-23 05:04:00,
2013-09-23 01:09:00,47.0,41.2,30.07,NE,45,2.0,5.0,80,0.00,,---,0.00,VWS V14.01,2013-09-23 05:09:00,
2013-09-23 01:14:00,47.0,41.2,30.07,SE,135,0.0,5.0,80,0.00,,---,0.00,VWS V14.01,2013-09-23 05:14:00,
2013-09-23 01:19:00,47.0,41.2,30.07,SE,135,1.0,5.0,80,0.00,,---,0.00,VWS V14.01,2013-09-23 05:19:00,
2013-09-23 01:24:00,47.0,40.8,30.07,ESE,112,0.0,3.0,79,0.00,,---,0.00,VWS V14.01,2013-09-23 05:24:00,
2013-09-23 01:29:00,47.0,40.8,30.07,ESE,112,2.0,3.0,79,0.00,,---,0.00,VWS V14.01,2013-09-23 05:29:00,
2013-09-23 01:34:00,47.0,41.2,30.07,East,90,1.0,3.0,80,0.00,,---,0.00,VWS V14.01,2013-09-23 05:34:00,
2013-09-23 01:39:00,47.0,41.2,30.07,SE,135,2.0,3.0,80,0.00,,---,0.00,VWS V14.01,2013-09-23 05:39:00,
2013-09-23 01:45:00,47.0,40.8,30.08,NE,45,1.0,3.0,79,0.00,,---,0.00,VWS V14.01,2013-09-23 05:45:00,
2013-09-23 01:50:00,47.0,40.8,30.08,ESE,112,1.0,3.0,79,0.00,,---,0.00,VWS V14.01,2013-09-23 05:50:00,
2013-09-23 01:55:00,47.0,40.8,30.08,East,90,0.0,3.0,79,0.00,,---,0.00,VWS V14.01,2013-09-23 05:55:00,
2013-09-23 02:00:00,47.0,40.8,30.08,SE,135,0.0,1.0,79,0.00,,---,0.00,VWS V14.01,2013-09-23 06:00:00,
2013-09-23 02:05:00,47.0,41.2,30.08,WSW,248,1.0,2.0,80,0.00,,---,0.00,VWS V14.01,2013-09-23 06:05:00,
2013-09-23 02:10:00,47.0,41.2,30.08,NNE,22,2.0,7.0,80,0.00,,---,0.00,VWS V14.01,2013-09-23 06:10:00,
2013-09-23 02:15:00,47.0,41.2,30.09,ENE,68,1.0,7.0,80,0.00,,---,0.00,VWS V14.01,2013-09-23 06:15:00,
2013-09-23 02:21:00,47.0,41.2,30.09,NE,45,2.0,2.0,80,0.00,,---,0.00,VWS V14.01,2013-09-23 06:21:00,
2013-09-23 02:26:00,47.0,41.2,30.09,NE,45,1.0,3.0,80,0.00,,---,0.00,VWS V14.01,2013-09-23 06:26:00,
2013-09-23 02:31:00,47.0,41.5,30.09,North,0,0.0,3.0,81,0.00,,---,0.00,VWS V14.01,2013-09-23 06:31:00,
2013-09-23 02:36:00,47.0,41.8,30.09,NE,45,1.0,6.0,82,0.00,,---,0.00,VWS V14.01,2013-09-23 06:36:00,
2013-09-23 02:41:00,47.0,41.8,30.09,ENE,68,1.0,2.0,82,0.00,,---,0.00,VWS V14.01,2013-09-23 06:41:00,
2013-09-23 02:46:00,47.0,41.8,30.09,ENE,68,3.0,6.0,82,0.00,,---,0.00,VWS V14.01,2013-09-23 06:46:00,
2013-09-23 02:51:00,47.0,41.5,30.09,NNE,22,0.0,8.0,81,0.00,,---,0.00,VWS V14.01,2013-09-23 06:51:00,
2013-09-23 02:56:00,47.0,41.8,30.09,NE,45,3.0,8.0,82,0.00,,---,0.00,VWS V14.01,2013-09-23 06:56:00,
2013-09-23 03:01:00,47.0,41.8,30.09,North,0,3.0,5.0,82,0.00,,---,0.00,VWS V14.01,2013-09-23 07:01:00,
2013-09-23 03:06:00,47.0,41.5,30.09,NNE,22,3.0,6.0,81,0.00,,---,0.00,VWS V14.01,2013-09-23 07:06:00,
2013-09-23 03:12:00,47.0,41.5,30.09,East,90,2.0,6.0,81,0.00,,---,0.00,VWS V14.01,2013-09-23 07:12:00,
2013-09-23 03:17:00,47.0,41.5,30.09,East,90,1.0,6.0,81,0.00,,---,0.00,VWS V14.01,2013-09-23 07:17:00,
2013-09-23 03:22:00,47.0,41.5,30.09,NE,45,2.0,6.0,81,0.00,,---,0.00,VWS V14.01,2013-09-23 07:22:00,
2013-09-23 03:27:00,47.0,41.5,30.09,ESE,112,1.0,6.0,81,0.00,,---,0.00,VWS V14.01,2013-09-23 07:27:00,
2013-09-23 03:32:00,47.0,41.5,30.09,ENE,68,1.0,6.0,81,0.00,,---,0.00,VWS V14.01,2013-09-23 07:32:00,
2013-09-23 03:37:00,47.0,41.5,30.09,NE,45,3.0,6.0,81,0.00,,---,0.00,VWS V14.01,2013-09-23 07:37:00,
2013-09-23 03:42:00,47.0,41.5,30.09,NE,45,1.0,4.0,81,0.00,,---,0.00,VWS V14.01,2013-09-23 07:42:00,
2013-09-23 03:47:00,47.0,41.5,30.09,NE,45,1.0,4.0,81,0.00,,---,0.00,VWS V14.01,2013-09-23 07:47:00,
2013-09-23 03:52:00,47.0,41.5,30.09,ENE,68,0.0,4.0,81,0.00,,---,0.00,VWS V14.01,2013-09-23 07:52:00,
2013-09-23 03:57:00,47.0,41.8,30.09,NNE,22,1.0,4.0,82,0.00,,---,0.00,VWS V14.01,2013-09-23 07:57:00,
2013-09-23 04:02:00,47.0,41.8,30.09,ENE,68,1.0,3.0,82,0.00,,---,0.00,VWS V14.01,2013-09-23 08:02:00,
2013-09-23 04:07:00,47.0,41.8,30.09,NE,45,1.0,3.0,82,0.00,,---,0.00,VWS V14.01,2013-09-23 08:07:00,
2013-09-23 04:12:00,47.0,41.5,30.09,NNE,22,3.0,5.0,81,0.00,,---,0.00,VWS V14.01,2013-09-23 08:12:00,
2013-09-23 04:17:00,47.0,41.5,30.09,NE,45,1.0,5.0,81,0.00,,---,0.00,VWS V14.01,2013-09-23 08:17:00,
2013-09-23 04:23:00,47.0,41.5,30.09,NE,45,3.0,4.0,81,0.00,,---,0.00,VWS V14.01,2013-09-23 08:23:00,
2013-09-23 04:28:00,47.0,41.5,30.09,ENE,68,4.0,4.0,81,0.00,,---,0.00,VWS V14.01,2013-09-23 08:28:00,
2013-09-23 04:33:00,47.0,41.5,30.09,ENE,68,1.0,5.0,81,0.00,,---,0.00,VWS V14.01,2013-09-23 08:33:00,
2013-09-23 04:38:00,47.0,41.5,30.09,NE,45,3.0,5.0,81,0.00,,---,0.00,VWS V14.01,2013-09-23 08:38:00,
2013-09-23 04:43:00,47.0,41.2,30.09,ENE,68,1.0,5.0,80,0.00,,---,0.00,VWS V14.01,2013-09-23 08:43:00,
2013-09-23 04:48:00,47.0,41.2,30.09,NE,45,2.0,5.0,80,0.00,,---,0.00,VWS V14.01,2013-09-23 08:48:00,
2013-09-23 04:53:00,47.0,41.5,30.09,NE,45,3.0,5.0,81,0.00,,---,0.00,VWS V14.01,2013-09-23 08:53:00,
2013-09-23 04:58:00,47.0,41.5,30.09,ENE,68,2.0,5.0,81,0.00,,---,0.00,VWS V14.01,2013-09-23 08:58:00,
2013-09-23 05:03:00,47.0,41.5,30.09,ENE,68,0.0,2.0,81,0.00,,---,0.00,VWS V14.01,2013-09-23 09:03:00,
2013-09-23 05:08:00,47.0,41.8,30.09,NNE,22,1.0,3.0,82,0.00,,---,0.00,VWS V14.01,2013-09-23 09:08:00,
2013-09-23 05:13:00,47.0,41.8,30.09,NE,45,2.0,3.0,82,0.00,,---,0.00,VWS V14.01,2013-09-23 09:13:00,
2013-09-23 05:18:00,47.0,41.8,30.09,NE,45,1.0,4.0,82,0.00,,---,0.00,VWS V14.01,2013-09-23 09:18:00,
2013-09-23 05:23:00,47.0,41.8,30.09,NNE,22,3.0,4.0,82,0.00,,---,0.00,VWS V14.01,2013-09-23 09:23:00,
2013-09-23 05:28:00,47.0,41.8,30.10,North,0,1.0,4.0,82,0.00,,---,0.00,VWS V14.01,2013-09-23 09:28:00,
2013-09-23 05:34:00,47.0,41.8,30.10,NNE,22,1.0,4.0,82,0.00,,---,0.00,VWS V14.01,2013-09-23 09:34:00,
2013-09-23 05:39:00,47.0,41.8,30.10,NNE,22,1.0,4.0,82,0.00,,---,0.00,VWS V14.01,2013-09-23 09:39:00,
2013-09-23 05:44:00,47.0,41.8,30.10,NE,45,1.0,2.0,82,0.00,,---,0.00,VWS V14.01,2013-09-23 09:44:00,
2013-09-23 05:49:00,47.0,41.8,30.10,ENE,68,0.0,2.0,82,0.00,,---,0.00,VWS V14.01,2013-09-23 09:49:00,
2013-09-23 05:54:00,47.0,41.8,30.10,NE,45,1.0,2.0,82,0.00,,---,0.00,VWS V14.01,2013-09-23 09:54:00,
2013-09-23 05:59:00,47.0,41.8,30.10,ENE,68,1.0,2.0,82,0.00,,---,0.00,VWS V14.01,2013-09-23 09:59:00,
2013-09-23 06:04:00,47.0,41.8,30.10,ENE,68,2.0,4.0,82,0.00,,---,0.00,VWS V14.01,2013-09-23 10:04:00,
2013-09-23 06:09:00,47.0,42.1,30.11,ENE,68,1.0,4.0,83,0.00,,---,0.00,VWS V14.01,2013-09-23 10:09:00,
2013-09-23 06:14:00,47.0,42.1,30.11,ENE,68,2.0,4.0,83,0.00,,---,0.00,VWS V14.01,2013-09-23 10:14:00,
2013-09-23 06:19:00,47.0,42.1,30.11,ENE,68,1.0,4.0,83,0.00,,---,0.00,VWS V14.01,2013-09-23 10:19:00,
2013-09-23 06:24:00,47.0,42.1,30.11,ENE,68,1.0,2.0,83,0.00,,---,0.00,VWS V14.01,2013-09-23 10:24:00,
2013-09-23 06:29:00,47.0,42.4,30.12,ENE,68,2.0,2.0,84,0.00,,---,0.00,VWS V14.01,2013-09-23 10:29:00,
2013-09-23 06:34:00,47.0,42.4,30.12,ENE,68,1.0,3.0,84,0.00,,---,0.00,VWS V14.01,2013-09-23 10:34:00,
2013-09-23 06:40:00,47.0,42.4,30.12,NE,45,1.0,3.0,84,0.00,,---,0.00,VWS V14.01,2013-09-23 10:40:00,
2013-09-23 06:45:00,46.0,41.1,30.12,ENE,68,1.0,2.0,83,0.00,,---,0.00,VWS V14.01,2013-09-23 10:45:00,
2013-09-23 06:50:00,47.0,42.1,30.12,ENE,68,1.0,3.0,83,0.00,,---,0.00,VWS V14.01,2013-09-23 10:50:00,
2013-09-23 06:55:00,47.0,42.1,30.12,NE,45,1.0,3.0,83,0.00,,---,0.00,VWS V14.01,2013-09-23 10:55:00,
2013-09-23 07:00:00,47.0,41.8,30.13,NE,45,1.0,3.0,82,0.00,,---,0.00,VWS V14.01,2013-09-23 11:00:00,
2013-09-23 07:05:00,47.0,41.5,30.13,NNE,22,2.0,3.0,81,0.00,,---,0.00,VWS V14.01,2013-09-23 11:05:00,
2013-09-23 07:10:00,47.0,41.5,30.13,ENE,68,2.0,3.0,81,0.00,,---,0.00,VWS V14.01,2013-09-23 11:10:00,
2013-09-23 07:15:00,47.0,41.5,30.13,NE,45,1.0,3.0,81,0.00,,---,0.00,VWS V14.01,2013-09-23 11:15:00,
2013-09-23 07:20:00,47.0,41.8,30.13,ENE,68,0.0,3.0,82,0.00,,---,0.00,VWS V14.01,2013-09-23 11:20:00,
2013-09-23 07:25:00,46.0,40.5,30.13,ENE,68,1.0,3.0,81,0.00,,---,0.00,VWS V14.01,2013-09-23 11:25:00,
2013-09-23 07:30:00,47.0,41.5,30.14,ENE,68,1.0,3.0,81,0.00,,---,0.00,VWS V14.01,2013-09-23 11:30:00,
2013-09-23 07:35:00,47.0,41.5,30.14,NE,45,1.0,3.0,81,0.00,,---,0.00,VWS V14.01,2013-09-23 11:35:00,
2013-09-23 07:41:00,47.0,41.5,30.14,ENE,68,2.0,3.0,81,0.00,,---,0.00,VWS V14.01,2013-09-23 11:41:00,
2013-09-23 07:46:00,47.0,41.5,30.14,NE,45,1.0,3.0,81,0.00,,---,0.00,VWS V14.01,2013-09-23 11:46:00,
2013-09-23 07:51:00,47.0,41.2,30.14,North,0,1.0,3.0,80,0.00,,---,0.00,VWS V14.01,2013-09-23 11:51:00,
2013-09-23 07:56:00,47.0,41.2,30.14,NE,45,0.0,3.0,80,0.00,,---,0.00,VWS V14.01,2013-09-23 11:56:00,
2013-09-23 08:01:00,47.0,41.2,30.14,ENE,68,0.0,3.0,80,0.00,,---,0.00,VWS V14.01,2013-09-23 12:01:00,
2013-09-23 08:06:00,47.0,41.2,30.14,NE,45,3.0,5.0,80,0.00,,---,0.00,VWS V14.01,2013-09-23 12:06:00,
2013-09-23 08:11:00,47.0,40.5,30.14,North,0,3.0,5.0,78,0.00,,---,0.00,VWS V14.01,2013-09-23 12:11:00,
2013-09-23 08:16:00,47.0,40.8,30.14,NNE,22,1.0,5.0,79,0.00,,---,0.00,VWS V14.01,2013-09-23 12:16:00,
2013-09-23 08:21:00,47.0,40.8,30.14,NE,45,3.0,5.0,79,0.00,,---,0.00,VWS V14.01,2013-09-23 12:21:00,
2013-09-23 08:26:00,47.0,40.8,30.15,NNE,22,1.0,5.0,79,0.00,,---,0.00,VWS V14.01,2013-09-23 12:26:00,
2013-09-23 08:31:00,47.0,40.8,30.15,NE,45,2.0,5.0,79,0.00,,---,0.00,VWS V14.01,2013-09-23 12:31:00,
2013-09-23 08:37:00,47.0,40.8,30.15,East,90,0.0,5.0,79,0.00,,---,0.00,VWS V14.01,2013-09-23 12:37:00,
2013-09-23 08:42:00,47.0,40.8,30.15,ENE,68,4.0,6.0,79,0.00,,---,0.00,VWS V14.01,2013-09-23 12:42:00,
2013-09-23 08:47:00,47.0,40.5,30.15,NE,45,0.0,6.0,78,0.00,,---,0.00,VWS V14.01,2013-09-23 12:47:00,
2013-09-23 08:52:00,48.0,41.8,30.16,North,0,3.0,6.0,79,0.00,,---,0.00,VWS V14.01,2013-09-23 12:52:00,
2013-09-23 08:57:00,48.0,41.8,30.16,NE,45,2.0,6.0,79,0.00,,---,0.00,VWS V14.01,2013-09-23 12:57:00,
2013-09-23 09:03:00,48.0,41.8,30.16,ENE,68,3.0,4.0,79,0.00,,---,0.00,VWS V14.01,2013-09-23 13:03:00,
2013-09-23 09:08:00,48.0,41.8,30.16,NE,45,1.0,6.0,79,0.00,,---,0.00,VWS V14.01,2013-09-23 13:08:00,
2013-09-23 09:13:00,48.0,41.5,30.16,NE,45,3.0,6.0,78,0.00,,---,0.00,VWS V14.01,2013-09-23 13:13:00,
2013-09-23 09:18:00,48.0,41.8,30.16,ENE,68,2.0,6.0,79,0.00,,---,0.00,VWS V14.01,2013-09-23 13:18:00,
2013-09-23 09:23:00,48.0,41.8,30.16,ENE,68,1.0,5.0,79,0.00,,---,0.00,VWS V14.01,2013-09-23 13:23:00,
2013-09-23 09:28:00,48.0,41.8,30.17,NE,45,1.0,5.0,79,0.00,,---,0.00,VWS V14.01,2013-09-23 13:28:00,
2013-09-23 09:33:00,49.0,42.8,30.17,NE,45,2.0,5.0,79,0.00,,---,0.00,VWS V14.01,2013-09-23 13:33:00,
2013-09-23 09:38:00,49.0,42.5,30.16,North,0,2.0,6.0,78,0.00,,---,0.00,VWS V14.01,2013-09-23 13:38:00,
2013-09-23 09:43:00,49.0,42.1,30.16,ENE,68,7.0,9.0,77,0.00,,---,0.00,VWS V14.01,2013-09-23 13:43:00,
2013-09-23 09:49:00,49.0,41.8,30.16,ENE,68,1.0,9.0,76,0.00,,---,0.00,VWS V14.01,2013-09-23 13:49:00,
2013-09-23 09:54:00,49.0,42.1,30.17,NNE,22,1.0,9.0,77,0.00,,---,0.00,VWS V14.01,2013-09-23 13:54:00,
2013-09-23 09:59:00,50.0,43.1,30.17,NNW,338,1.0,9.0,77,0.00,,---,0.00,VWS V14.01,2013-09-23 13:59:00,
2013-09-23 10:04:00,50.0,42.7,30.16,North,0,3.0,5.0,76,0.00,,---,0.00,VWS V14.01,2013-09-23 14:04:00,
2013-09-23 10:09:00,50.0,42.4,30.17,North,0,3.0,6.0,75,0.00,,---,0.00,VWS V14.01,2013-09-23 14:09:00,
2013-09-23 10:14:00,51.0,43.7,30.17,SE,135,1.0,6.0,76,0.00,,---,0.00,VWS V14.01,2013-09-23 14:14:00,
2013-09-23 10:19:00,51.0,43.0,30.17,NE,45,2.0,8.0,74,0.00,,---,0.00,VWS V14.01,2013-09-23 14:19:00,
2013-09-23 10:24:00,51.0,43.4,30.17,East,90,3.0,6.0,75,0.00,,---,0.00,VWS V14.01,2013-09-23 14:24:00,
2013-09-23 10:30:00,51.0,43.0,30.17,NE,45,3.0,7.0,74,0.00,,---,0.00,VWS V14.01,2013-09-23 14:30:00,
2013-09-23 10:35:00,51.0,42.7,30.17,NNE,22,3.0,7.0,73,0.00,,---,0.00,VWS V14.01,2013-09-23 14:35:00,
2013-09-23 10:40:00,51.0,42.7,30.17,NNE,22,4.0,5.0,73,0.00,,---,0.00,VWS V14.01,2013-09-23 14:40:00,
2013-09-23 10:45:00,52.0,43.3,30.17,NE,45,5.0,7.0,72,0.00,,---,0.00,VWS V14.01,2013-09-23 14:45:00,
2013-09-23 10:50:00,52.0,42.9,30.17,North,0,3.0,7.0,71,0.00,,---,0.00,VWS V14.01,2013-09-23 14:50:00,
2013-09-23 10:55:00,51.0,41.6,30.17,North,0,3.0,8.0,70,0.00,,---,0.00,VWS V14.01,2013-09-23 14:55:00,
2013-09-23 11:00:00,51.0,41.9,30.17,NE,45,6.0,7.0,71,0.00,,---,0.00,VWS V14.01,2013-09-23 15:00:00,
2013-09-23 11:05:00,51.0,41.9,30.17,NNE,22,5.0,11.0,71,0.00,,---,0.00,VWS V14.01,2013-09-23 15:05:00,
2013-09-23 11:10:00,51.0,42.3,30.18,NNE,22,4.0,11.0,72,0.00,,---,0.00,VWS V14.01,2013-09-23 15:10:00,
2013-09-23 11:15:00,52.0,43.3,30.18,NNE,22,3.0,11.0,72,0.00,,---,0.00,VWS V14.01,2013-09-23 15:15:00,
2013-09-23 11:20:00,52.0,42.2,30.18,NNW,338,3.0,7.0,69,0.00,,---,0.00,VWS V14.01,2013-09-23 15:20:00,
2013-09-23 11:26:00,52.0,41.8,30.18,NNE,22,4.0,7.0,68,0.00,,---,0.00,VWS V14.01,2013-09-23 15:26:00,
2013-09-23 11:31:00,53.0,43.1,30.18,NNW,338,3.0,8.0,69,0.00,,---,0.00,VWS V14.01,2013-09-23 15:31:00,
2013-09-23 11:36:00,53.0,42.0,30.18,North,0,3.0,8.0,66,0.00,,---,0.00,VWS V14.01,2013-09-23 15:36:00,
2013-09-23 11:41:00,53.0,42.0,30.18,North,0,6.0,6.0,66,0.00,,---,0.00,VWS V14.01,2013-09-23 15:41:00,
2013-09-23 11:46:00,53.0,41.6,30.18,NW,315,4.0,9.0,65,0.00,,---,0.00,VWS V14.01,2013-09-23 15:46:00,
2013-09-23 11:51:00,53.0,42.0,30.18,NE,45,3.0,10.0,66,0.00,,---,0.00,VWS V14.01,2013-09-23 15:51:00,
2013-09-23 11:56:00,53.0,42.7,30.18,WNW,292,1.0,10.0,68,0.00,,---,0.00,VWS V14.01,2013-09-23 15:56:00,
2013-09-23 12:01:00,53.0,42.3,30.18,NW,315,3.0,8.0,67,0.00,,---,0.00,VWS V14.01,2013-09-23 16:01:00,
2013-09-23 12:06:00,53.0,43.5,30.18,North,0,4.0,8.0,70,0.00,,---,0.00,VWS V14.01,2013-09-23 16:06:00,
2013-09-23 12:11:00,53.0,42.3,30.18,NNE,22,5.0,9.0,67,0.00,,---,0.00,VWS V14.01,2013-09-23 16:11:00,
2013-09-23 12:17:00,52.0,41.4,30.18,NNW,338,1.0,9.0,67,0.00,,---,0.00,VWS V14.01,2013-09-23 16:17:00,
2013-09-23 12:22:00,53.0,42.3,30.18,NNW,338,6.0,8.0,67,0.00,,---,0.00,VWS V14.01,2013-09-23 16:22:00,
2013-09-23 12:27:00,53.0,42.7,30.18,NNW,338,1.0,9.0,68,0.00,,---,0.00,VWS V14.01,2013-09-23 16:27:00,
2013-09-23 12:32:00,52.0,41.8,30.18,NE,45,3.0,10.0,68,0.00,,---,0.00,VWS V14.01,2013-09-23 16:32:00,
2013-09-23 12:37:00,52.0,42.2,30.18,ENE,68,4.0,10.0,69,0.00,,---,0.00,VWS V14.01,2013-09-23 16:37:00,
2013-09-23 12:42:00,52.0,41.4,30.18,NNW,338,2.0,6.0,67,0.00,,---,0.00,VWS V14.01,2013-09-23 16:42:00,
2013-09-23 12:47:00,53.0,42.3,30.18,NNW,338,2.0,6.0,67,0.00,,---,0.00,VWS V14.01,2013-09-23 16:47:00,
2013-09-23 12:52:00,53.0,42.0,30.18,North,0,3.0,11.0,66,0.00,,---,0.00,VWS V14.01,2013-09-23 16:52:00,
2013-09-23 12:57:00,53.0,41.6,30.18,NW,315,3.0,11.0,65,0.00,,---,0.00,VWS V14.01,2013-09-23 16:57:00,
2013-09-23 13:02:00,53.0,40.3,30.18,NNW,338,4.0,8.0,62,0.00,,---,0.00,VWS V14.01,2013-09-23 17:02:00,
2013-09-23 13:07:00,53.0,41.2,30.18,NW,315,1.0,8.0,64,0.00,,---,0.00,VWS V14.01,2013-09-23 17:07:00,
2013-09-23 13:13:00,54.0,40.9,30.18,NNW,338,4.0,8.0,61,0.00,,---,0.00,VWS V14.01,2013-09-23 17:13:00,
2013-09-23 13:18:00,54.0,40.9,30.17,WNW,292,3.0,8.0,61,0.00,,---,0.00,VWS V14.01,2013-09-23 17:18:00,
2013-09-23 13:23:00,54.0,40.0,30.18,WNW,292,1.0,5.0,59,0.00,,---,0.00,VWS V14.01,2013-09-23 17:23:00,
2013-09-23 13:28:00,54.0,40.9,30.18,WSW,248,1.0,5.0,61,0.00,,---,0.00,VWS V14.01,2013-09-23 17:28:00,
2013-09-23 13:33:00,54.0,40.9,30.18,North,0,2.0,5.0,61,0.00,,---,0.00,VWS V14.01,2013-09-23 17:33:00,
2013-09-23 13:38:00,54.0,41.3,30.18,NNW,338,3.0,5.0,62,0.00,,---,0.00,VWS V14.01,2013-09-23 17:38:00,
2013-09-23 13:43:00,54.0,40.4,30.18,NNW,338,1.0,2.0,60,0.00,,---,0.00,VWS V14.01,2013-09-23 17:43:00,
2013-09-23 13:48:00,55.0,42.2,30.18,North,0,2.0,5.0,62,0.00,,---,0.00,VWS V14.01,2013-09-23 17:48:00,
2013-09-23 13:53:00,55.0,41.0,30.17,NNW,338,4.0,5.0,59,0.00,,---,0.00,VWS V14.01,2013-09-23 17:53:00,
2013-09-23 13:58:00,54.0,40.4,30.17,North,0,1.0,5.0,60,0.00,,---,0.00,VWS V14.01,2013-09-23 17:58:00,
2013-09-23 14:03:00,55.0,41.4,30.17,NE,45,3.0,4.0,60,0.00,,---,0.00,VWS V14.01,2013-09-23 18:03:00,
2013-09-23 14:09:00,55.0,41.4,30.17,North,0,4.0,6.0,60,0.00,,---,0.00,VWS V14.01,2013-09-23 18:09:00,
2013-09-23 14:14:00,56.0,42.3,30.17,NNW,338,1.0,6.0,60,0.00,,---,0.00,VWS V14.01,2013-09-23 18:14:00,
2013-09-23 14:19:00,57.0,42.8,30.16,NNW,338,0.0,6.0,59,0.00,,---,0.00,VWS V14.01,2013-09-23 18:19:00,
2013-09-23 14:24:00,58.0,42.4,30.16,ESE,112,2.0,4.0,56,0.00,,---,0.00,VWS V14.01,2013-09-23 18:24:00,
2013-09-23 14:29:00,58.0,41.5,30.16,NNW,338,3.0,4.0,54,0.00,,---,0.00,VWS V14.01,2013-09-23 18:29:00,
2013-09-23 14:34:00,56.0,39.1,30.16,West,270,3.0,4.0,53,0.00,,---,0.00,VWS V14.01,2013-09-23 18:34:00,
2013-09-23 14:39:00,57.0,42.4,30.16,NNW,338,2.0,6.0,58,0.00,,---,0.00,VWS V14.01,2013-09-23 18:39:00,
2013-09-23 14:44:00,56.0,41.0,30.16,NW,315,3.0,6.0,57,0.00,,---,0.00,VWS V14.01,2013-09-23 18:44:00,
2013-09-23 14:49:00,57.0,41.9,30.16,NNW,338,4.0,6.0,57,0.00,,---,0.00,VWS V14.01,2013-09-23 18:49:00,
2013-09-23 14:54:00,57.0,42.4,30.16,WNW,292,2.0,6.0,58,0.00,,---,0.00,VWS V14.01,2013-09-23 18:54:00,
2013-09-23 15:00:00,58.0,42.9,30.15,NNW,338,1.0,1.0,57,0.00,,---,0.00,VWS V14.01,2013-09-23 19:00:00,
2013-09-23 15:05:00,57.0,41.5,30.15,WNW,292,4.0,6.0,56,0.00,,---,0.00,VWS V14.01,2013-09-23 19:05:00,
2013-09-23 15:10:00,57.0,40.5,30.15,NNW,338,2.0,6.0,54,0.00,,---,0.00,VWS V14.01,2013-09-23 19:10:00,
2013-09-23 15:15:00,57.0,41.9,30.16,NW,315,5.0,10.0,57,0.00,,---,0.00,VWS V14.01,2013-09-23 19:15:00,
2013-09-23 15:20:00,58.0,43.3,30.15,North,0,4.0,4.0,58,0.00,,---,0.00,VWS V14.01,2013-09-23 19:20:00,
2013-09-23 15:25:00,58.0,42.4,30.15,West,270,2.0,6.0,56,0.00,,---,0.00,VWS V14.01,2013-09-23 19:25:00,
2013-09-23 15:30:00,57.0,41.5,30.15,NNE,22,2.0,7.0,56,0.00,,---,0.00,VWS V14.01,2013-09-23 19:30:00,
2013-09-23 15:35:00,57.0,41.9,30.15,NNW,338,2.0,7.0,57,0.00,,---,0.00,VWS V14.01,2013-09-23 19:35:00,
2013-09-23 15:40:00,58.0,43.3,30.14,North,0,2.0,6.0,58,0.00,,---,0.00,VWS V14.01,2013-09-23 19:40:00,
2013-09-23 15:45:00,58.0,42.4,30.15,NNW,338,3.0,6.0,56,0.00,,---,0.00,VWS V14.01,2013-09-23 19:45:00,
2013-09-23 15:51:00,58.0,42.4,30.15,WNW,292,1.0,6.0,56,0.00,,---,0.00,VWS V14.01,2013-09-23 19:51:00,
2013-09-23 15:56:00,58.0,41.9,30.15,West,270,1.0,6.0,55,0.00,,---,0.00,VWS V14.01,2013-09-23 19:56:00,
2013-09-23 16:01:00,58.0,42.4,30.15,NNW,338,3.0,4.0,56,0.00,,---,0.00,VWS V14.01,2013-09-23 20:01:00,
2013-09-23 16:06:00,57.0,42.4,30.15,WNW,292,7.0,11.0,58,0.00,,---,0.00,VWS V14.01,2013-09-23 20:06:00,
2013-09-23 16:11:00,57.0,42.8,30.15,West,270,2.0,11.0,59,0.00,,---,0.00,VWS V14.01,2013-09-23 20:11:00,
2013-09-23 16:16:00,57.0,41.9,30.15,WNW,292,1.0,11.0,57,0.00,,---,0.00,VWS V14.01,2013-09-23 20:16:00,
2013-09-23 16:21:00,58.0,42.4,30.15,WNW,292,2.0,11.0,56,0.00,,---,0.00,VWS V14.01,2013-09-23 20:21:00,
2013-09-23 16:26:00,57.0,41.5,30.14,West,270,1.0,11.0,56,0.00,,---,0.00,VWS V14.01,2013-09-23 20:26:00,
2013-09-23 16:31:00,58.0,42.4,30.15,WNW,292,6.0,11.0,56,0.00,,---,0.00,VWS V14.01,2013-09-23 20:31:00,
2013-09-23 16:36:00,58.0,43.3,30.15,WNW,292,5.0,11.0,58,0.00,,---,0.00,VWS V14.01,2013-09-23 20:36:00,
2013-09-23 16:41:00,58.0,42.4,30.15,NW,315,3.0,6.0,56,0.00,,---,0.00,VWS V14.01,2013-09-23 20:41:00,
2013-09-23 16:46:00,58.0,42.9,30.15,WNW,292,8.0,14.0,57,0.00,,---,0.00,VWS V14.01,2013-09-23 20:46:00,
2013-09-23 16:51:00,58.0,41.9,30.15,West,270,3.0,14.0,55,0.00,,---,0.00,VWS V14.01,2013-09-23 20:51:00,
2013-09-23 16:57:00,58.0,42.9,30.15,WNW,292,3.0,14.0,57,0.00,,---,0.00,VWS V14.01,2013-09-23 20:57:00,
2013-09-23 17:02:00,58.0,42.9,30.15,WNW,292,4.0,7.0,57,0.00,,---,0.00,VWS V14.01,2013-09-23 21:02:00,
2013-09-23 17:07:00,58.0,42.9,30.15,WNW,292,5.0,15.0,57,0.00,,---,0.00,VWS V14.01,2013-09-23 21:07:00,
2013-09-23 17:12:00,58.0,41.9,30.15,WNW,292,10.0,15.0,55,0.00,,---,0.00,VWS V14.01,2013-09-23 21:12:00,
2013-09-23 17:17:00,58.0,42.4,30.15,WNW,292,10.0,15.0,56,0.00,,---,0.00,VWS V14.01,2013-09-23 21:17:00,
2013-09-23 17:22:00,57.0,41.9,30.15,NNW,338,3.0,8.0,57,0.00,,---,0.00,VWS V14.01,2013-09-23 21:22:00,
2013-09-23 17:27:00,57.0,41.9,30.15,WSW,248,3.0,11.0,57,0.00,,---,0.00,VWS V14.01,2013-09-23 21:27:00,
2013-09-23 17:32:00,57.0,41.5,30.15,WNW,292,8.0,13.0,56,0.00,,---,0.00,VWS V14.01,2013-09-23 21:32:00,
2013-09-23 17:37:00,57.0,42.4,30.15,NNW,338,2.0,13.0,58,0.00,,---,0.00,VWS V14.01,2013-09-23 21:37:00,
2013-09-23 17:42:00,57.0,42.4,30.16,WNW,292,7.0,10.0,58,0.00,,---,0.00,VWS V14.01,2013-09-23 21:42:00,
2013-09-23 17:48:00,57.0,42.4,30.16,WNW,292,3.0,14.0,58,0.00,,---,0.00,VWS V14.01,2013-09-23 21:48:00,
2013-09-23 17:53:00,57.0,42.4,30.16,NW,315,3.0,14.0,58,0.00,,---,0.00,VWS V14.01,2013-09-23 21:53:00,
2013-09-23 17:58:00,57.0,42.4,30.15,WSW,248,1.0,14.0,58,0.00,,---,0.00,VWS V14.01,2013-09-23 21:58:00,
2013-09-23 18:03:00,57.0,41.9,30.16,NNW,338,4.0,7.0,57,0.00,,---,0.00,VWS V14.01,2013-09-23 22:03:00,
2013-09-23 18:08:00,57.0,42.4,30.16,NW,315,3.0,8.0,58,0.00,,---,0.00,VWS V14.01,2013-09-23 22:08:00,
2013-09-23 18:13:00,56.0,41.5,30.16,North,0,2.0,8.0,58,0.00,,---,0.00,VWS V14.01,2013-09-23 22:13:00,
2013-09-23 18:18:00,56.0,41.0,30.16,North,0,3.0,8.0,57,0.00,,---,0.00,VWS V14.01,2013-09-23 22:18:00,
2013-09-23 18:23:00,55.0,41.0,30.16,NNW,338,3.0,6.0,59,0.00,,---,0.00,VWS V14.01,2013-09-23 22:23:00,
2013-09-23 18:29:00,55.0,41.4,30.16,NNW,338,6.0,7.0,60,0.00,,---,0.00,VWS V14.01,2013-09-23 22:29:00,
2013-09-23 18:34:00,55.0,41.4,30.16,NW,315,3.0,8.0,60,0.00,,---,0.00,VWS V14.01,2013-09-23 22:34:00,
2013-09-23 18:39:00,55.0,41.4,30.16,WSW,248,5.0,8.0,60,0.00,,---,0.00,VWS V14.01,2013-09-23 22:39:00,
2013-09-23 18:44:00,54.0,40.9,30.16,NNW,338,4.0,9.0,61,0.00,,---,0.00,VWS V14.01,2013-09-23 22:44:00,
2013-09-23 18:49:00,54.0,40.9,30.16,North,0,1.0,9.0,61,0.00,,---,0.00,VWS V14.01,2013-09-23 22:49:00,
2013-09-23 18:54:00,53.0,40.8,30.16,North,0,1.0,9.0,63,0.00,,---,0.00,VWS V14.01,2013-09-23 22:54:00,
2013-09-23 18:59:00,53.0,41.2,30.15,NNW,338,2.0,9.0,64,0.00,,---,0.00,VWS V14.01,2013-09-23 22:59:00,
2013-09-23 19:04:00,52.0,40.6,30.15,NNW,338,0.0,6.0,65,0.00,,---,0.00,VWS V14.01,2013-09-23 23:04:00,
2013-09-23 19:09:00,52.0,41.0,30.16,NNW,338,2.0,6.0,66,0.00,,---,0.00,VWS V14.01,2013-09-23 23:09:00,
2013-09-23 19:14:00,52.0,41.4,30.16,NW,315,2.0,6.0,67,0.00,,---,0.00,VWS V14.01,2013-09-23 23:14:00,
2013-09-23 19:19:00,51.0,40.8,30.15,NNW,338,4.0,6.0,68,0.00,,---,0.00,VWS V14.01,2013-09-23 23:19:00,
2013-09-23 19:25:00,51.0,40.8,30.15,NNW,338,3.0,4.0,68,0.00,,---,0.00,VWS V14.01,2013-09-23 23:25:00,
2013-09-23 19:30:00,51.0,41.2,30.15,WNW,292,1.0,5.0,69,0.00,,---,0.00,VWS V14.01,2013-09-23 23:30:00,
2013-09-23 19:35:00,51.0,41.6,30.15,NNW,338,2.0,5.0,70,0.00,,---,0.00,VWS V14.01,2013-09-23 23:35:00,
2013-09-23 19:40:00,50.0,41.0,30.15,WNW,292,3.0,3.0,71,0.00,,---,0.00,VWS V14.01,2013-09-23 23:40:00,
2013-09-23 19:45:00,50.0,41.0,30.16,NW,315,0.0,3.0,71,0.00,,---,0.00,VWS V14.01,2013-09-23 23:45:00,
2013-09-23 19:50:00,50.0,41.3,30.16,WNW,292,1.0,4.0,72,0.00,,---,0.00,VWS V14.01,2013-09-23 23:50:00,
2013-09-23 19:55:00,49.0,41.1,30.16,WNW,292,1.0,4.0,74,0.00,,---,0.00,VWS V14.01,2013-09-23 23:55:00,
2013-09-23 20:00:00,49.0,41.4,30.16,WNW,292,1.0,1.0,75,0.00,,---,0.00,VWS V14.01,2013-09-24 00:00:00,
2013-09-23 20:05:00,49.0,42.1,30.16,West,270,0.0,1.0,77,0.00,,---,0.00,VWS V14.01,2013-09-24 00:05:00,
2013-09-23 20:11:00,48.0,41.5,30.16,WSW,248,0.0,1.0,78,0.00,,---,0.00,VWS V14.01,2013-09-24 00:11:00,
2013-09-23 20:16:00,48.0,41.8,30.16,WSW,248,1.0,1.0,79,0.00,,---,0.00,VWS V14.01,2013-09-24 00:16:00,
2013-09-23 20:21:00,48.0,42.1,30.16,WSW,248,1.0,1.0,80,0.00,,---,0.00,VWS V14.01,2013-09-24 00:21:00,
2013-09-23 20:26:00,47.0,41.5,30.16,South,180,1.0,1.0,81,0.00,,---,0.00,VWS V14.01,2013-09-24 00:26:00,
2013-09-23 20:31:00,47.0,41.8,30.16,SE,135,1.0,1.0,82,0.00,,---,0.00,VWS V14.01,2013-09-24 00:31:00,
2013-09-23 20:36:00,47.0,42.1,30.16,SE,135,0.0,2.0,83,0.00,,---,0.00,VWS V14.01,2013-09-24 00:36:00,
2013-09-23 20:41:00,46.0,41.4,30.16,SE,135,0.0,1.0,84,0.00,,---,0.00,VWS V14.01,2013-09-24 00:41:00,
2013-09-23 20:46:00,46.0,41.4,30.16,SE,135,0.0,1.0,84,0.00,,---,0.00,VWS V14.01,2013-09-24 00:46:00,
2013-09-23 20:51:00,46.0,41.8,30.16,SSE,158,0.0,1.0,85,0.00,,---,0.00,VWS V14.01,2013-09-24 00:51:00,
2013-09-23 20:56:00,45.0,41.1,30.16,South,180,0.0,1.0,86,0.00,,---,0.00,VWS V14.01,2013-09-24 00:56:00,
2013-09-23 21:01:00,45.0,41.1,30.16,South,180,0.0,1.0,86,0.00,,---,0.00,VWS V14.01,2013-09-24 01:01:00,
2013-09-23 21:07:00,45.0,41.4,30.16,South,180,0.0,1.0,87,0.00,,---,0.00,VWS V14.01,2013-09-24 01:07:00,
2013-09-23 21:12:00,45.0,41.4,30.16,West,270,1.0,1.0,87,0.00,,---,0.00,VWS V14.01,2013-09-24 01:12:00,
2013-09-23 21:17:00,44.0,40.7,30.16,West,270,0.0,1.0,88,0.00,,---,0.00,VWS V14.01,2013-09-24 01:17:00,
2013-09-23 21:22:00,44.0,40.7,30.16,West,270,0.0,1.0,88,0.00,,---,0.00,VWS V14.01,2013-09-24 01:22:00,
2013-09-23 21:27:00,44.0,41.0,30.16,West,270,0.0,1.0,89,0.00,,---,0.00,VWS V14.01,2013-09-24 01:27:00,
2013-09-23 21:32:00,44.0,41.3,30.16,West,270,0.0,1.0,90,0.00,,---,0.00,VWS V14.01,2013-09-24 01:32:00,
2013-09-23 21:37:00,43.0,40.3,30.16,West,270,0.0,1.0,90,0.00,,---,0.00,VWS V14.01,2013-09-24 01:37:00,
2013-09-23 21:42:00,43.0,40.3,30.16,West,270,1.0,1.0,90,0.00,,---,0.00,VWS V14.01,2013-09-24 01:42:00,
2013-09-23 21:47:00,43.0,40.6,30.16,West,270,1.0,1.0,91,0.00,,---,0.00,VWS V14.01,2013-09-24 01:47:00,
2013-09-23 21:53:00,43.0,40.6,30.16,West,270,0.0,1.0,91,0.00,,---,0.00,VWS V14.01,2013-09-24 01:53:00,
2013-09-23 21:58:00,43.0,40.6,30.17,SW,225,0.0,1.0,91,0.00,,---,0.00,VWS V14.01,2013-09-24 01:58:00,
2013-09-23 22:03:00,43.0,40.6,30.16,SW,225,0.0,1.0,91,0.00,,---,0.00,VWS V14.01,2013-09-24 02:03:00,
2013-09-23 22:08:00,43.0,40.8,30.16,SW,225,0.0,1.0,92,0.00,,---,0.00,VWS V14.01,2013-09-24 02:08:00,
2013-09-23 22:13:00,43.0,40.8,30.16,SW,225,0.0,1.0,92,0.00,,---,0.00,VWS V14.01,2013-09-24 02:13:00,
2013-09-23 22:18:00,43.0,40.8,30.17,SW,225,0.0,1.0,92,0.00,,---,0.00,VWS V14.01,2013-09-24 02:18:00,
2013-09-23 22:23:00,42.0,40.1,30.17,SW,225,0.0,1.0,93,0.00,,---,0.00,VWS V14.01,2013-09-24 02:23:00,
2013-09-23 22:28:00,42.0,40.1,30.16,SW,225,0.0,1.0,93,0.00,,---,0.00,VWS V14.01,2013-09-24 02:28:00,
2013-09-23 22:33:00,42.0,40.1,30.17,WSW,248,0.0,1.0,93,0.00,,---,0.00,VWS V14.01,2013-09-24 02:33:00,
2013-09-23 22:38:00,42.0,40.1,30.17,WSW,248,0.0,1.0,93,0.00,,---,0.00,VWS V14.01,2013-09-24 02:38:00,
2013-09-23 22:44:00,42.0,40.1,30.17,SW,225,0.0,1.0,93,0.00,,---,0.00,VWS V14.01,2013-09-24 02:44:00,
2013-09-23 22:49:00,42.0,40.1,30.17,WSW,248,0.0,1.0,93,0.00,,---,0.00,VWS V14.01,2013-09-24 02:49:00,
2013-09-23 22:54:00,42.0,40.4,30.17,WSW,248,0.0,1.0,94,0.00,,---,0.00,VWS V14.01,2013-09-24 02:54:00,
2013-09-23 22:59:00,42.0,40.4,30.17,SW,225,0.0,1.0,94,0.00,,---,0.00,VWS V14.01,2013-09-24 02:59:00,
2013-09-23 23:04:00,42.0,40.4,30.17,SW,225,0.0,1.0,94,0.00,,---,0.00,VWS V14.01,2013-09-24 03:04:00,
2013-09-23 23:09:00,42.0,40.4,30.17,SW,225,0.0,1.0,94,0.00,,---,0.00,VWS V14.01,2013-09-24 03:09:00,
2013-09-23 23:14:00,41.0,39.4,30.17,SW,225,0.0,1.0,94,0.00,,---,0.00,VWS V14.01,2013-09-24 03:14:00,
2013-09-23 23:19:00,41.0,39.4,30.17,SW,225,0.0,1.0,94,0.00,,---,0.00,VWS V14.01,2013-09-24 03:19:00,
2013-09-23 23:24:00,41.0,39.4,30.17,SW,225,0.0,1.0,94,0.00,,---,0.00,VWS V14.01,2013-09-24 03:24:00,
2013-09-23 23:29:00,41.0,39.4,30.17,SW,225,0.0,1.0,94,0.00,,---,0.00,VWS V14.01,2013-09-24 03:29:00,
2013-09-23 23:35:00,41.0,39.4,30.17,SW,225,0.0,1.0,94,0.00,,---,0.00,VWS V14.01,2013-09-24 03:35:00,
2013-09-23 23:40:00,41.0,39.4,30.17,SW,225,0.0,1.0,94,0.00,,---,0.00,VWS V14.01,2013-09-24 03:40:00,
2013-09-23 23:45:00,40.0,38.7,30.17,SW,225,0.0,1.0,95,0.00,,---,0.00,VWS V14.01,2013-09-24 03:45:00,
2013-09-23 23:50:00,40.0,38.7,30.17,SW,225,0.0,1.0,95,0.00,,---,0.00,VWS V14.01,2013-09-24 03:50:00,
2013-09-23 23:55:00,41.0,39.7,30.17,SW,225,0.0,1.0,95,0.00,,---,0.00,VWS V14.01,2013-09-24 03:55:00,